Theta_e
317 316 316 315 314 316 317 317 317 318 318 318 318 319 319 319 319 319 319 319 320 320 320 320 320 321 317 306 308 324 341 337 318 314 312 311 310 311 309 309 308 307 308 309 312 318 316
317 317 316 316 315 315 317 317 317 317 317 318 318 318 318 318 318 318 318 318 318 318 318 320 321 321 311 304 314 322 323 317 315 314 312 311 311 313 310 308 308 309 308 308 312 316 317
318 317 316 315 315 315 315 315 316 317 317 317 317 317 318 318 318 318 318 317 316 317 319 321 322 319 308 309 317 322 318 316 316 314 312 312 313 312 312 308 309 308 307 307 308 313 314
318 317 316 316 315 315 315 315 316 315 316 316 317 316 317 317 317 318 318 318 317 319 320 322 322 317 306 315 317 317 319 316 316 316 314 315 314 313 311 310 309 307 307 305 309 312 313
317 316 316 315 314 314 314 314 315 315 315 316 316 316 316 316 317 318 317 317 318 319 321 322 316 312 309 318 315 317 319 316 314 314 315 314 313 309 310 308 308 307 303 304 305 309 312
316 315 315 315 315 314 314 315 315 315 315 315 315 315 315 315 316 316 315 315 317 317 320 320 317 309 313 311 315 316 317 317 313 312 311 311 311 310 309 309 302 303 303 304 304 307 308
315 314 314 314 314 314 314 314 314 315 315 314 314 314 314 315 315 314 311 308 307 308 311 308 308 308 310 315 315 314 315 314 313 313 307 308 309 305 305 305 306 306 305 304 306 308 308
315 314 313 313 313 313 314 314 314 314 314 314 313 314 314 315 315 314 308 306 310 312 308 310 310 309 312 313 310 313 315 311 310 306 307 308 305 307 306 307 307 306 304 304 306 307 310
314 313 312 312 312 313 313 313 313 313 314 313 313 313 313 314 314 308 305 307 312 314 308 309 312 311 312 313 310 311 313 310 308 307 306 305 306 307 308 307 307 306 305 305 305 306 307
314 313 312 312 312 312 312 313 313 313 313 313 313 313 313 313 309 309 313 313 312 313 304 304 308 311 311 312 309 313 313 312 309 307 307 306 308 307 307 306 307 304 307 306 304 304 300
313 312 312 312 312 312 312 312 312 312 312 312 312 313 312 312 311 310 316 313 312 312 292 305 308 315 311 310 310 312 315 314 307 307 308 305 306 307 307 306 307 306 307 305 304 303 302
312 312 312 312 312 311 311 311 311 311 311 311 312 312 311 311 310 310 312 314 315 303 293 303 308 307 307 307 308 312 312 315 313 310 310 307 310 309 308 307 308 307 305 303 303 303 299
311 311 311 311 311 311 310 310 310 310 310 311 311 311 312 311 313 311 313 314 303 296 303 304 304 305 305 304 306 309 308 308 307 305 304 307 307 310 310 308 310 308 306 298 296 297 295
311 311 311 311 311 311 310 310 309 309 309 310 309 310 311 314 314 314 315 310 296 298 302 309 308 304 303 305 304 306 306 305 307 308 304 303 300 308 310 308 307 304 306 299 291 293 295
310 310 311 310 310 310 310 309 309 308 308 308 307 314 313 316 315 314 314 301 299 301 307 305 306 302 301 305 304 305 305 305 307 312 306 304 303 310 309 309 309 305 304 304 300 297 297
309 310 310 310 310 310 310 310 309 309 309 308 312 312 314 315 316 317 310 298 302 306 308 305 302 305 300 306 303 304 304 307 308 309 313 310 303 308 310 311 309 308 306 302 303 293 292
309 309 309 309 310 310 310 309 309 308 308 306 312 312 316 316 317 313 304 302 304 308 309 304 303 304 306 305 305 302 303 309 312 308 312 310 310 306 308 307 306 306 305 302 304 301 295
308 308 308 308 309 309 309 309 308 307 306 304 306 308 314 316 308 304 303 304 302 305 309 308 308 306 306 307 308 307 305 309 315 312 309 309 310 304 304 308 309 307 304 304 302 297 299
307 307 307 308 308 309 309 308 308 307 306 303 303 305 317 316 302 303 304 305 307 306 307 309 307 309 311 309 308 309 309 314 315 313 312 312 306 301 302 306 309 306 304 302 303 302 299
306 307 307 307 307 308 308 308 308 307 306 308 305 304 312 312 308 307 306 304 304 309 308 310 308 310 309 308 311 308 308 311 313 313 314 316 306 305 300 302 306 303 303 303 304 301 299
306 306 306 306 307 307 308 308 308 306 306 303 304 304 307 306 308 307 309 306 304 305 309 310 307 307 308 307 308 308 310 310 311 314 312 316 307 306 303 305 305 303 302 303 302 304 300
305 305 305 306 306 306 307 308 308 306 305 310 304 308 309 306 306 308 304 307 306 306 307 307 308 308 309 309 310 310 311 310 309 312 310 310 306 306 303 305 305 302 304 304 304 303 303
305 304 304 305 305 305 306 307 308 307 305 310 309 311 310 302 304 306 307 304 304 306 307 310 311 310 308 310 314 314 314 313 312 312 310 310 307 304 300 303 303 300 304 305 305 306 305
304 304 304 303 304 305 305 306 307 307 302 305 308 311 309 301 304 304 305 306 305 306 305 308 314 311 314 317 317 317 317 316 315 313 312 309 308 305 302 302 294 304 308 309 307 310 311
304 303 303 302 303 304 305 306 306 307 306 298 300 312 310 303 306 306 306 306 307 307 307 310 314 316 317 314 310 308 309 310 310 311 312 312 310 303 301 300 302 306 308 309 308 307 312
304 303 302 302 302 303 304 305 306 306 306 299 300 306 313 307 306 308 307 306 306 307 310 311 314 316 315 312 308 303 301 305 304 307 310 311 312 308 303 298 295 306 309 313 311 303 311
304 302 301 301 301 302 303 303 305 306 306 301 298 305 312 310 311 311 307 306 308 307 308 308 311 313 312 308 305 302 302 305 302 303 304 306 306 304 301 300 303 311 311 312 301 306 312
304 302 301 300 300 302 302 303 304 305 306 301 300 303 310 309 310 312 310 311 310 309 307 309 310 312 309 306 304 303 302 304 304 305 305 303 303 303 302 299 295 312 310 307 313 313 316
302 301 300 300 300 300 302 302 303 305 305 300 304 305 307 308 307 306 309 311 309 314 311 312 310 312 310 306 304 304 302 302 303 298 306 301 307 306 307 305 312 313 313 316 314 315 316
Wind_Speed
6 5 3 1 2 4 4 4 5 5 6 8 8 8 9 8 8 9 9 9 9 9 10 10 10 11 4 3 6 1 6 10 7 3 3 3 3 4 1 0 2 4 2 3 4 9 3
8 8 7 5 5 2 3 4 5 5 6 7 8 8 9 9 9 8 9 8 9 10 9 9 8 9 2 2 2 4 9 7 6 4 4 5 4 1 3 2 4 2 2 1 2 7 8
11 10 8 8 8 7 7 6 6 6 6 6 8 8 9 8 9 8 9 9 9 10 9 9 6 2 1 5 3 5 8 4 5 5 4 4 3 2 5 2 1 2 1 5 8 4 5
11 11 11 10 9 9 9 8 6 6 6 6 7 9 8 8 9 9 9 9 10 10 10 8 2 2 7 2 2 3 6 3 4 5 2 1 3 1 2 2 2 3 3 2 8 3 3
12 12 12 12 12 11 9 10 10 9 7 6 6 8 7 8 8 8 9 9 11 9 6 2 2 2 4 2 1 1 5 2 4 3 3 3 2 1 1 3 2 5 5 2 3 4 6
13 13 13 12 11 11 11 11 11 11 10 8 6 6 6 6 7 7 9 6 2 4 3 4 2 3 3 4 4 2 3 2 3 7 5 1 2 2 3 1 1 3 4 5 6 6 6
13 14 14 14 14 13 13 13 12 12 11 10 8 6 5 4 5 6 5 1 3 3 2 4 0 3 5 7 3 3 3 4 2 6 4 4 5 6 3 1 3 5 5 5 3 5 4
14 15 15 15 16 15 14 14 13 12 12 11 9 7 4 5 4 3 2 2 1 2 4 4 5 6 6 3 2 1 1 2 4 4 1 2 4 2 5 6 5 5 3 2 1 5 2
14 14 15 15 16 15 15 15 15 14 13 12 10 7 5 3 1 1 2 2 1 0 1 3 4 4 2 6 2 2 0 1 3 4 4 1 3 4 5 6 6 3 2 1 4 4 7
12 14 15 14 15 15 16 16 16 15 14 13 11 8 5 2 2 2 3 4 2 3 2 2 1 1 2 1 2 1 0 2 3 2 3 2 3 7 7 4 1 1 2 3 2 2 2
13 13 14 14 15 16 16 17 17 17 16 14 11 8 2 3 3 3 2 3 5 3 3 1 0 2 1 2 0 3 1 2 3 3 3 2 5 5 6 2 1 4 6 4 3 4 3
12 13 14 14 16 16 17 17 18 19 18 16 12 6 6 3 1 3 3 4 2 1 1 3 2 2 3 1 1 2 1 6 3 4 5 3 1 2 3 2 2 6 2 4 3 0 1
12 13 14 15 16 17 18 18 19 20 20 20 15 3 6 1 1 3 1 1 2 2 2 4 3 3 2 2 1 1 2 3 2 4 4 2 3 1 1 3 4 3 3 3 1 3 3
12 13 13 14 16 18 19 19 20 21 21 21 15 9 3 3 3 5 1 2 3 0 3 3 2 1 4 3 2 2 3 2 2 2 4 3 4 1 2 1 2 4 4 4 4 4 6
12 13 15 16 16 17 19 20 21 23 22 21 5 1 1 2 3 3 3 3 1 2 3 6 4 3 1 2 1 2 1 3 3 6 3 4 3 0 4 3 2 4 2 3 5 1 4
11 13 14 16 16 18 19 21 23 25 24 17 2 2 2 7 2 1 4 2 1 2 3 2 4 1 4 4 4 2 3 2 1 1 1 5 4 2 3 1 12 1 8 1 2 4 6
10 12 14 14 15 17 19 21 23 26 26 11 3 2 3 5 1 5 3 2 2 4 3 1 2 2 2 2 3 3 1 1 2 3 3 4 1 3 3 3 1 4 3 5 2 3 4
8 11 13 14 16 17 19 20 22 24 29 9 2 2 4 3 4 1 4 4 1 2 2 2 1 2 1 1 3 3 5 1 3 3 5 2 4 3 3 1 2 2 3 2 0 1 0
6 9 12 14 16 16 18 20 21 21 18 3 2 2 2 1 4 2 1 1 1 1 2 3 2 1 2 3 3 1 1 2 4 1 5 7 2 4 3 4 3 2 3 4 5 1 4
4 8 11 14 16 16 18 20 21 21 17 1 1 1 2 4 2 5 4 2 1 1 3 2 3 1 1 2 3 3 1 4 2 2 5 5 4 2 3 2 3 4 2 2 2 2 3
5 7 10 12 14 16 17 19 21 21 18 1 4 2 2 2 2 3 3 2 2 2 2 1 1 1 2 2 1 2 2 1 2 1 3 2 4 1 2 3 2 2 2 5 4 3 5
6 6 8 11 13 15 16 17 20 23 16 4 2 1 1 2 2 3 1 2 4 2 2 0 2 1 3 3 2 3 4 2 1 3 3 2 4 2 3 1 1 2 3 3 3 2 7
9 7 8 9 12 14 15 16 18 22 11 3 1 1 3 2 2 2 4 4 3 1 2 2 3 2 2 1 1 4 6 6 3 2 3 3 5 3 2 1 2 4 3 2 3 4 3
9 8 8 7 9 11 13 14 15 16 12 1 2 1 1 2 1 2 2 1 3 1 2 3 2 1 3 8 9 10 10 10 9 9 4 5 5 1 3 2 4 2 3 4 7 10 7
9 8 7 6 7 9 10 12 13 13 13 2 1 2 1 2 1 1 0 1 1 2 2 1 3 3 1 1 2 3 1 2 5 8 6 2 4 4 2 3 3 4 5 5 6 7 3
11 9 6 4 5 7 8 10 11 11 12 2 1 1 1 1 2 2 1 2 0 1 1 1 1 3 2 1 2 4 4 2 3 3 3 6 6 0 3 4 7 4 2 3 3 7 2
12 8 5 3 4 5 6 8 9 10 11 2 1 1 1 1 0 1 1 1 1 1 1 2 4 1 1 2 2 3 4 1 4 4 3 2 2 3 3 5 5 6 3 3 4 3 3
9 6 2 3 4 4 4 6 7 8 10 3 1 1 2 1 3 1 2 1 2 1 2 2 3 2 1 3 3 3 3 3 3 1 2 2 3 2 2 3 8 1 5 5 2 2 2
9 5 5 7 6 5 4 4 5 7 8 2 0 2 1 3 3 2 5 6 4 1 0 1 3 1 1 3 2 3 3 3 3 3 1 4 3 1 6 2 1 2 2 4 3 2 2
Wind_Direction
48 66 63 16 20 306 292 279 277 287 280 281 283 284 283 277 278 286 294 300 304 304 306 311 314 332 325 313 257 44 92 117 132 137 128 148 170 178 108 215 155 217 293 257 293 137 177
60 60 60 60 60 14 349 354 342 308 291 286 282 275 272 270 274 285 288 297 297 297 301 301 316 320 307 312 117 165 131 147 163 158 168 175 219 151 122 198 220 212 241 99 29 138 149
67 65 65 60 49 37 27 18 358 327 309 298 283 274 270 273 276 282 289 292 296 297 298 296 315 305 250 242 128 154 175 189 179 181 187 209 229 184 153 176 322 309 149 134 35 139 133
50 48 46 45 36 32 24 19 6 353 331 306 291 279 275 276 280 287 290 299 299 298 296 287 227 208 260 240 174 228 178 215 193 222 253 252 209 124 231 118 88 61 56 106 39 133 104
42 38 35 30 26 19 12 14 10 0 351 338 308 286 282 282 287 297 296 296 288 295 262 203 156 261 287 91 265 64 176 162 138 195 210 125 152 82 142 49 98 43 91 83 90 33 146
41 36 31 23 19 12 6 4 4 356 357 347 327 312 295 293 291 288 290 272 332 296 195 182 236 243 244 322 297 292 186 189 160 135 129 218 83 88 75 19 84 98 98 81 71 29 53
31 33 27 19 14 10 1 3 358 355 349 350 344 328 323 284 265 284 318 187 231 180 194 221 286 269 290 299 267 218 175 158 127 68 47 19 74 38 37 53 104 119 92 73 81 27 105
25 27 21 17 9 3 2 358 355 352 346 345 349 344 316 264 265 319 277 201 175 70 314 226 255 272 261 259 304 308 173 108 73 68 294 57 94 20 124 139 108 88 77 46 168 23 121
23 20 17 13 4 356 1 356 354 352 346 342 344 341 305 276 196 196 228 221 143 157 310 296 212 228 223 186 155 310 41 122 62 56 38 151 75 143 141 126 102 71 96 230 313 68 75
28 18 12 10 0 355 358 357 351 350 347 343 336 338 317 235 175 179 233 150 310 221 74 328 268 80 151 204 9 245 13 96 68 91 129 48 355 158 130 88 345 32 343 288 312 240 352
27 18 9 10 359 356 354 355 349 346 345 337 333 331 313 240 124 208 63 328 134 219 132 335 270 51 67 205 74 38 43 52 110 106 220 55 105 111 82 35 261 53 59 55 55 108 178
26 19 12 9 360 358 353 353 352 344 342 338 336 326 159 164 231 268 313 130 225 52 94 15 315 178 137 19 88 101 92 65 87 86 63 91 13 34 82 97 65 125 103 69 88 153 45
22 19 14 9 2 358 355 353 352 343 343 341 338 263 170 346 77 346 238 39 101 88 308 13 14 346 173 149 144 82 79 56 145 132 108 69 33 73 150 98 84 64 23 359 59 26 0
22 16 15 9 6 359 355 354 352 344 344 344 344 125 230 246 306 353 129 66 87 29 341 339 350 264 187 158 80 82 88 126 113 103 120 137 161 284 37 6 101 56 26 27 355 333 339
19 18 16 12 7 1 357 356 351 346 346 341 316 177 164 325 308 177 99 73 146 173 322 330 310 152 119 111 110 119 134 185 219 188 125 148 179 39 33 100 315 131 75 62 109 112 269
20 20 19 14 6 4 359 358 353 348 344 342 50 8 19 331 315 90 81 153 208 234 308 7 25 6 169 143 153 185 188 174 210 179 281 173 134 38 129 137 55 308 127 222 62 314 323
19 21 19 17 8 6 1 1 356 351 343 333 52 78 342 344 275 49 128 172 248 252 278 306 330 333 92 126 107 151 220 66 1 123 117 136 124 141 206 28 66 148 144 66 90 338 305
25 24 18 18 13 8 0 2 360 358 342 38 37 97 4 326 63 15 142 177 218 319 306 292 272 259 53 77 96 164 216 255 354 218 147 85 111 129 87 89 272 70 99 115 24 187 85
30 30 23 17 14 10 2 1 0 2 10 336 46 306 357 288 134 133 196 130 249 335 319 326 307 356 9 86 111 108 114 27 353 199 160 177 56 112 133 160 133 97 101 96 94 89 214
56 36 30 19 15 10 4 2 357 356 358 349 7 91 8 60 40 138 140 123 304 318 261 284 287 185 124 61 27 132 94 16 11 80 58 93 99 173 212 102 106 156 134 133 209 234 305
103 56 36 24 17 12 6 3 357 352 350 311 14 73 0 118 101 121 102 125 113 310 227 274 236 226 141 132 87 111 138 158 80 136 59 60 103 112 90 89 156 161 175 179 236 280 261
122 82 51 28 20 13 9 6 1 353 343 72 30 341 105 68 334 125 39 163 187 245 250 40 222 142 187 165 200 185 158 200 121 61 67 12 124 139 145 102 9 248 263 255 241 243 259
137 106 71 37 22 13 10 9 9 5 356 55 34 242 288 2 70 161 159 162 173 209 222 267 295 176 186 324 69 57 81 69 72 114 110 72 138 157 172 4 359 272 228 210 278 243 261
144 116 82 50 25 13 9 11 15 21 38 21 39 285 319 89 314 114 158 215 179 221 278 348 59 140 48 116 108 91 79 82 71 55 32 128 110 83 126 166 245 16 251 276 265 281 248
145 116 88 55 25 12 7 11 17 17 25 41 16 331 23 104 315 195 188 323 318 322 219 276 41 11 325 338 96 127 72 162 60 40 39 53 129 107 204 212 332 237 210 200 203 282 226
150 128 103 59 21 3 5 7 12 14 18 65 36 326 343 155 206 328 288 355 335 26 194 241 98 325 104 106 145 164 181 171 174 132 48 72 72 200 162 227 269 286 142 151 162 279 172
154 137 119 69 354 343 353 360 7 13 16 21 28 311 300 255 204 223 216 303 102 96 276 305 344 86 318 126 130 166 183 261 181 187 165 106 72 239 169 249 276 252 162 154 228 303 158
168 130 160 258 272 307 331 350 1 9 10 8 28 302 323 280 280 276 320 202 155 208 232 59 210 173 92 135 188 160 194 170 188 97 174 169 166 207 149 263 282 82 132 222 15 167 153
129 151 200 227 239 265 296 323 352 6 6 30 129 54 320 247 323 307 284 280 273 333 226 165 355 163 150 107 177 134 159 176 157 200 81 198 227 244 206 262 28 257 275 304 241 247 169